Location: Grange Verzio
(44.5000°N, 6.9833°E)
Time: 07:36:56
(UTC+00:00)

Cosmos 1023 Rocket - Visible Passes

Search period start: 24 September 2023 00:00
Search period end: 04 October 2023 00:00
Orbit: 734 x 771 km, 74.1° (Epoch: 23 September)

Date Brightness Start Highest point End Pass type
(mag) Time Alt. Az. Time Alt. Az. Time Alt. Az.
25 Sep 7.7 04:40:08 10° NE 04:41:01 10° NE 04:41:55 10° NE visible
26 Sep 7.4 22:03:55 11° N 22:03:55 11° N 22:04:08 10° N visible
27 Sep 7.1 04:56:18 10° N 05:00:13 21° NE 05:04:08 10° ESE visible
27 Sep 7.2 21:22:39 12° N 21:22:39 12° N 21:23:07 10° N visible
28 Sep 7.4 04:15:54 10° NNE 04:18:08 13° NE 04:20:22 10° ENE visible
28 Sep 7.0 20:41:16 13° NNE 20:41:16 13° NNE 20:41:47 10° NNE visible
29 Sep 6.8 19:59:41 13° NNE 19:59:41 13° NNE 20:00:14 10° NNE visible
29 Sep 7.3 21:39:34 13° NNW 21:39:34 13° NNW 21:40:43 10° NNW visible
30 Sep 6.9 04:32:57 10° N 04:37:15 25° ENE 04:41:32 10° ESE visible
30 Sep 6.5 19:17:45 13° NE 19:17:45 13° NE 19:18:24 10° NE visible
30 Sep 6.7 20:57:34 21° NNW 20:57:34 21° NNW 20:59:51 10° N visible
01 Oct 7.4 03:52:14 10° NNE 03:55:13 15° NE 03:58:12 10° E visible
01 Oct 5.8 18:28:18 10° SSE 18:34:17 18° ENE 18:36:11 10° NE visible
01 Oct 5.3 20:08:39 10° SW 20:13:43 47° WNW 20:18:37 10° N visible
02 Oct 5.6 04:50:56 10° NNW 04:56:05 51° ENE 05:01:11 10° SE visible
02 Oct 6.1 17:49:13 10° ESE 17:51:01 12° E 17:52:50 10° ENE visible
02 Oct 4.4 19:26:46 10° SSW 19:31:54 86° WNW 19:37:08 10° NNE visible
02 Oct 7.3 21:11:48 10° W 21:14:29 14° NW 21:17:11 10° NNW visible
03 Oct 6.6 04:09:40 10° N 04:14:16 29° ENE 04:18:50 10° ESE visible
03 Oct 4.5 18:45:26 10° S 18:50:23 51° ESE 18:55:25 10° NNE visible
03 Oct 6.6 20:28:21 10° WSW 20:32:25 23° NW 20:36:33 10° N visible
